| time (UTC) | temp F | wind direction | speed knots | gust knots | rain 1hr in | rain 24hr in | rain mn in | humidity % | barometer mb |
| 20260504130810 | 54 | 185 | 4.3 | 7.0 | 0.00 | 0.00 | 0.00 | 46 | 1008.8 |
| 20260504130310 | 54 | 205 | 5.2 | 7.0 | 0.00 | 0.00 | 0.00 | 48 | 1008.8 |
| 20260504120308 | 50 | 217 | 3.5 | 4.3 | 0.00 | 0.00 | 0.00 | 52 | 1008.9 |
| 20260504110309 | 48 | 188 | 3.5 | 4.3 | 0.00 | 0.00 | 0.00 | 54 | 1009.1 |
| 20260504100308 | 47 | 199 | 3.5 | 4.3 | 0.00 | 0.00 | 0.00 | 56 | 1008.9 |
| 20260504081808 | 47 | 244 | 1.7 | 3.5 | 0.00 | 0.00 | 0.00 | 61 | 1009.3 |
| 20260504081310 | 46 | 237 | 2.6 | 3.5 | 0.00 | 0.00 | 0.00 | 62 | 1009.3 |
| 20260504080811 | 46 | 191 | 1.7 | 2.6 | 0.00 | 0.00 | 0.00 | 64 | 1009.3 |
| 20260504080309 | 46 | 263 | 0.0 | 0.9 | 0.00 | 0.00 | 0.00 | 64 | 1009.4 |
| 20260504070308 | 46 | 217 | 1.7 | 2.6 | 0.00 | 0.00 | 0.00 | 60 | 1009.6 |
| 20260504050309 | 45 | 0 | 0.0 | 0.0 | 0.00 | 0.00 | 0.00 | 63 | 1009.9 |
| 20260504045808 | 45 | 0 | 0.0 | 0.0 | 0.00 | 0.00 | 0.00 | 62 | 1009.9 |
| 20260504045308 | 45 | 235 | 0.0 | 0.9 | 0.00 | 0.00 | 0.00 | 63 | 1010.0 |
| 20260504044808 | 45 | 0 | 0.0 | 0.0 | 0.00 | 0.00 | 0.00 | 62 | 1010.0 |
| 20260504044308 | 45 | 313 | 0.0 | 0.0 | 0.00 | 0.00 | 0.00 | 61 | 1010.1 |
| 20260504043808 | 45 | 17 | 1.7 | 1.7 | 0.00 | 0.00 | 0.00 | 60 | 1010.1 |
| 20260504043308 | 45 | 350 | 1.7 | 2.6 | 0.00 | 0.00 | 0.00 | 59 | 1010.1 |
| 20260504042810 | 45 | 0 | 0.0 | 0.0 | 0.00 | 0.00 | 0.00 | 58 | 1010.2 |
| 20260504042308 | 45 | 289 | 0.0 | 0.9 | 0.00 | 0.00 | 0.00 | 59 | 1010.2 |
| 20260504041809 | 45 | 294 | 0.9 | 1.7 | 0.00 | 0.00 | 0.00 | 58 | 1010.2 |
| 20260504041308 | 45 | 358 | 0.9 | 1.7 | 0.00 | 0.00 | 0.00 | 56 | 1010.2 |
| 20260504040809 | 45 | 0 | 0.0 | 0.0 | 0.00 | 0.00 | 0.00 | 56 | 1010.1 |
| 20260504040309 | 44 | 17 | 0.9 | 1.7 | 0.00 | 0.00 | 0.00 | 54 | 1010.0 |
| 20260504035808 | 44 | 333 | 0.0 | 0.0 | 0.00 | 0.00 | 0.00 | 54 | 1010.0 |
| 20260504035310 | 44 | 6 | 0.9 | 1.7 | 0.00 | 0.00 | 0.00 | 53 | 1010.0 |
| 20260504034815 | 44 | 0 | 0.0 | 0.0 | 0.00 | 0.00 | 0.00 | 53 | 1010.0 |
| 20260504034308 | 44 | 350 | 0.9 | 1.7 | 0.00 | 0.00 | 0.00 | 54 | 1010.0 |
| 20260504033808 | 44 | 0 | 0.0 | 0.0 | 0.00 | 0.00 | 0.00 | 53 | 1010.0 |
| 20260504033310 | 44 | 344 | 0.0 | 0.0 | 0.00 | 0.00 | 0.00 | 51 | 1009.9 |
| 20260504032808 | 43 | 0 | 0.0 | 0.0 | 0.00 | 0.00 | 0.00 | 55 | 1009.9 |
| 20260504032309 | 43 | 13 | 0.0 | 1.7 | 0.00 | 0.00 | 0.00 | 56 | 1009.9 |
| 20260504031808 | 43 | 6 | 1.7 | 2.6 | 0.00 | 0.00 | 0.00 | 57 | 1009.9 |
| 20260504031308 | 43 | 351 | 0.0 | 0.9 | 0.00 | 0.00 | 0.00 | 55 | 1009.9 |
| 20260504030809 | 43 | 356 | 0.9 | 1.7 | 0.00 | 0.00 | 0.00 | 56 | 1009.8 |
| 20260504030309 | 43 | 0 | 0.0 | 0.0 | 0.00 | 0.00 | 0.00 | 53 | 1009.8 |
| 20260504025809 | 42 | 0 | 0.0 | 0.9 | 0.00 | 0.00 | 0.00 | 53 | 1009.7 |
| 20260504025309 | 42 | 353 | 0.9 | 1.7 | 0.00 | 0.00 | 0.00 | 54 | 1009.7 |
| 20260504024808 | 42 | 11 | 1.7 | 2.6 | 0.00 | 0.00 | 0.00 | 57 | 1009.7 |
| 20260504024309 | 42 | 0 | 0.0 | 0.0 | 0.00 | 0.00 | 0.00 | 60 | 1009.8 |
| 20260504023808 | 42 | 11 | 0.0 | 0.0 | 0.00 | 0.00 | 0.00 | 54 | 1009.8 |
| 20260504023309 | 42 | 9 | 0.0 | 0.9 | 0.00 | 0.00 | 0.00 | 54 | 1009.8 |
| 20260504022809 | 42 | 0 | 0.0 | 0.0 | 0.00 | 0.00 | 0.00 | 56 | 1009.8 |
| 20260504022308 | 42 | 0 | 0.0 | 0.0 | 0.00 | 0.00 | 0.00 | 50 | 1009.8 |
| 20260504021808 | 42 | 4 | 0.9 | 1.7 | 0.00 | 0.00 | 0.00 | 55 | 1009.7 |
| 20260504021308 | 42 | 30 | 1.7 | 1.7 | 0.00 | 0.00 | 0.00 | 53 | 1009.8 |
| 20260504020808 | 41 | 16 | 0.9 | 1.7 | 0.00 | 0.00 | 0.00 | 58 | 1009.9 |
| 20260504020309 | 41 | 13 | 0.0 | 0.9 | 0.00 | 0.00 | 0.00 | 59 | 1009.9 |
| 20260504015811 | 42 | 37 | 0.9 | 1.7 | 0.00 | 0.00 | 0.00 | 56 | 1009.9 |
| 20260504015308 | 42 | 7 | 0.9 | 1.7 | 0.00 | 0.00 | 0.00 | 53 | 1009.9 |
| 20260504014808 | 42 | 16 | 1.7 | 1.7 | 0.00 | 0.00 | 0.00 | 52 | 1009.8 |
| 20260504014308 | 42 | 28 | 0.0 | 0.9 | 0.00 | 0.00 | 0.00 | 53 | 1009.8 |
| 20260504013809 | 42 | 22 | 0.0 | 0.9 | 0.00 | 0.00 | 0.00 | 52 | 1009.8 |
| 20260504013308 | 42 | 25 | 0.9 | 1.7 | 0.00 | 0.00 | 0.00 | 52 | 1009.7 |
| 20260504012809 | 41 | 33 | 0.0 | 0.9 | 0.00 | 0.00 | 0.00 | 52 | 1009.6 |
| 20260504012309 | 41 | 13 | 1.7 | 1.7 | 0.00 | 0.00 | 0.00 | 54 | 1009.6 |
| 20260504011808 | 42 | 5 | 1.7 | 2.6 | 0.00 | 0.00 | 0.00 | 54 | 1009.6 |
| 20260504011309 | 42 | 46 | 0.0 | 0.9 | 0.00 | 0.00 | 0.00 | 54 | 1009.5 |
| 20260504010809 | 42 | 30 | 0.0 | 1.7 | 0.00 | 0.00 | 0.00 | 52 | 1009.4 |
| 20260504010311 | 43 | 31 | 1.7 | 1.7 | 0.00 | 0.00 | 0.00 | 53 | 1009.3 |
| 20260504005808 | 43 | 21 | 0.9 | 1.7 | 0.00 | 0.00 | 0.00 | 51 | 1009.2 |
| 20260504005308 | 43 | 68 | 0.0 | 0.0 | 0.00 | 0.00 | 0.00 | 48 | 1009.2 |
| 20260504004808 | 43 | 10 | 1.7 | 1.7 | 0.00 | 0.00 | 0.00 | 50 | 1009.0 |
| 20260504004308 | 43 | 23 | 0.9 | 1.7 | 0.00 | 0.00 | 0.00 | 49 | 1009.0 |
| 20260504003809 | 43 | 4 | 0.9 | 1.7 | 0.00 | 0.00 | 0.00 | 50 | 1008.9 |
| 20260504003308 | 44 | 27 | 0.0 | 0.9 | 0.00 | 0.00 | 0.00 | 51 | 1008.9 |
| 20260504002809 | 44 | 349 | 0.0 | 1.7 | 0.00 | 0.00 | 0.00 | 47 | 1008.8 |
| 20260504002308 | 44 | 359 | 0.9 | 1.7 | 0.00 | 0.00 | 0.00 | 47 | 1008.7 |
| 20260504001808 | 44 | 0 | 0.0 | 0.0 | 0.00 | 0.00 | 0.00 | 47 | 1008.6 |
| 20260504001308 | 45 | 321 | 0.9 | 1.7 | 0.00 | 0.00 | 0.00 | 49 | 1008.5 |
| 20260504000808 | 46 | 359 | 0.9 | 1.7 | 0.00 | 0.00 | 0.00 | 48 | 1008.4 |
| 20260504000309 | 46 | 10 | 0.0 | 0.9 | 0.00 | 0.00 | 0.00 | 45 | 1008.3 |
| 20260503235808 | 47 | 0 | 0.0 | 0.0 | 0.00 | 0.00 | 0.00 | 44 | 1008.1 |
| 20260503235308 | 48 | 0 | 0.0 | 0.0 | 0.00 | 0.00 | 0.00 | 42 | 1008.1 |
| 20260503234808 | 48 | 317 | 0.0 | 0.9 | 0.00 | 0.00 | 0.00 | 39 | 1007.9 |
| 20260503234308 | 48 | 320 | 0.0 | 0.9 | 0.00 | 0.00 | 0.00 | 38 | 1007.9 |
| 20260503233808 | 48 | 325 | 0.9 | 1.7 | 0.00 | 0.00 | 0.00 | 39 | 1007.8 |
| 20260503233308 | 48 | 51 | 0.0 | 0.9 | 0.00 | 0.00 | 0.00 | 39 | 1007.7 |
| 20260503232808 | 48 | 331 | 0.0 | 0.9 | 0.00 | 0.00 | 0.00 | 38 | 1007.7 |
| 20260503232315 | 48 | 351 | 0.0 | 1.7 | 0.00 | 0.00 | 0.00 | 38 | 1007.6 |
| 20260503231808 | 49 | 328 | 0.0 | 1.7 | 0.00 | 0.00 | 0.00 | 38 | 1007.6 |
| 20260503231308 | 49 | 346 | 0.9 | 1.7 | 0.00 | 0.00 | 0.00 | 38 | 1007.6 |
| 20260503230808 | 49 | 327 | 0.9 | 1.7 | 0.00 | 0.00 | 0.00 | 37 | 1007.5 |
| 20260503230308 | 49 | 354 | 0.0 | 0.9 | 0.00 | 0.00 | 0.00 | 38 | 1007.5 |
| 20260503225808 | 49 | 4 | 0.0 | 1.7 | 0.00 | 0.00 | 0.00 | 38 | 1007.5 |
| 20260503225310 | 49 | 359 | 0.0 | 1.7 | 0.00 | 0.00 | 0.00 | 38 | 1007.5 |
| 20260503224808 | 49 | 332 | 0.9 | 1.7 | 0.00 | 0.00 | 0.00 | 39 | 1007.5 |
| 20260503224308 | 50 | 27 | 0.0 | 1.7 | 0.00 | 0.00 | 0.00 | 38 | 1007.4 |
| 20260503223808 | 50 | 359 | 1.7 | 2.6 | 0.00 | 0.00 | 0.00 | 38 | 1007.5 |
| 20260503223308 | 51 | 166 | 3.5 | 4.3 | 0.00 | 0.00 | 0.00 | 35 | 1007.5 |
| 20260503222808 | 51 | 70 | 1.7 | 1.7 | 0.00 | 0.00 | 0.00 | 34 | 1007.4 |
| 20260503221848 | 52 | 4 | 1.7 | 2.6 | 0.00 | 0.00 | 0.00 | 36 | 1007.4 |
| 20260503221308 | 52 | 235 | 1.7 | 2.6 | 0.00 | 0.00 | 0.00 | 34 | 1007.4 |
| 20260503220808 | 52 | 99 | 0.9 | 1.7 | 0.00 | 0.00 | 0.00 | 36 | 1007.5 |
| 20260503220308 | 52 | 79 | 0.9 | 1.7 | 0.00 | 0.00 | 0.00 | 35 | 1007.5 |
| 20260503215809 | 53 | 164 | 2.6 | 2.6 | 0.00 | 0.00 | 0.00 | 34 | 1007.5 |
| 20260503215309 | 53 | 179 | 3.5 | 5.2 | 0.00 | 0.00 | 0.00 | 34 | 1007.5 |
| 20260503214809 | 53 | 180 | 3.5 | 5.2 | 0.00 | 0.00 | 0.00 | 35 | 1007.5 |
| 20260503214308 | 53 | 80 | 1.7 | 1.7 | 0.00 | 0.00 | 0.00 | 36 | 1007.5 |
| 20260503213809 | 53 | 89 | 1.7 | 2.6 | 0.00 | 0.00 | 0.00 | 36 | 1007.5 |
| 20260503213308 | 53 | 60 | 0.9 | 1.7 | 0.00 | 0.00 | 0.00 | 35 | 1007.6 |
| 20260503212808 | 52 | 169 | 2.6 | 4.3 | 0.00 | 0.00 | 0.00 | 35 | 1007.6 |
| 20260503212308 | 51 | 295 | 0.9 | 2.6 | 0.00 | 0.00 | 0.00 | 36 | 1007.6 |
| 20260503211808 | 51 | 230 | 0.9 | 2.6 | 0.00 | 0.00 | 0.00 | 35 | 1007.6 |
| 20260503211308 | 51 | 175 | 1.7 | 2.6 | 0.00 | 0.00 | 0.00 | 36 | 1007.6 |
| 20260503210808 | 51 | 201 | 1.7 | 1.7 | 0.00 | 0.00 | 0.00 | 36 | 1007.7 |
| 20260503210308 | 51 | 173 | 0.9 | 1.7 | 0.00 | 0.00 | 0.00 | 35 | 1007.7 |
| 20260503205808 | 51 | 192 | 1.7 | 3.5 | 0.00 | 0.00 | 0.00 | 36 | 1007.7 |
| 20260503205309 | 52 | 232 | 2.6 | 5.2 | 0.00 | 0.00 | 0.00 | 37 | 1007.8 |
| 20260503204809 | 52 | 152 | 1.7 | 3.5 | 0.00 | 0.00 | 0.00 | 36 | 1007.8 |
| 20260503204309 | 52 | 299 | 2.6 | 5.2 | 0.00 | 0.00 | 0.00 | 36 | 1007.8 |
| 20260503203808 | 51 | 173 | 2.6 | 4.3 | 0.00 | 0.00 | 0.00 | 37 | 1007.9 |
| 20260503203308 | 51 | 189 | 3.5 | 8.7 | 0.00 | 0.00 | 0.00 | 38 | 1007.9 |
| 20260503202808 | 51 | 190 | 2.6 | 3.5 | 0.00 | 0.00 | 0.00 | 37 | 1007.9 |
| 20260503202308 | 51 | 159 | 2.6 | 3.5 | 0.00 | 0.00 | 0.00 | 38 | 1007.9 |
| 20260503201808 | 50 | 293 | 3.5 | 5.2 | 0.00 | 0.00 | 0.00 | 37 | 1007.9 |
| 20260503201308 | 50 | 209 | 3.5 | 6.1 | 0.00 | 0.00 | 0.00 | 40 | 1008.0 |
| 20260503200808 | 50 | 211 | 1.7 | 3.5 | 0.00 | 0.00 | 0.00 | 38 | 1008.1 |
| 20260503200310 | 49 | 130 | 0.9 | 2.6 | 0.00 | 0.00 | 0.00 | 40 | 1008.1 |
| 20260503195808 | 49 | 165 | 1.7 | 3.5 | 0.00 | 0.00 | 0.00 | 40 | 1008.3 |
| 20260503195308 | 50 | 284 | 1.7 | 3.5 | 0.00 | 0.00 | 0.00 | 38 | 1008.3 |
| 20260503194808 | 50 | 188 | 1.7 | 3.5 | 0.00 | 0.00 | 0.00 | 40 | 1008.3 |
| 20260503194308 | 49 | 322 | 1.7 | 4.3 | 0.00 | 0.00 | 0.00 | 38 | 1008.4 |
| 20260503193808 | 49 | 209 | 1.7 | 6.1 | 0.00 | 0.00 | 0.00 | 38 | 1008.5 |
| 20260503193308 | 49 | 149 | 1.7 | 3.5 | 0.00 | 0.00 | 0.00 | 40 | 1008.6 |
| 20260503192808 | 49 | 84 | 1.7 | 3.5 | 0.00 | 0.00 | 0.00 | 40 | 1008.6 |
| 20260503192308 | 50 | 180 | 3.5 | 5.2 | 0.00 | 0.00 | 0.00 | 40 | 1008.5 |
| 20260503191811 | 50 | 226 | 3.5 | 5.2 | 0.00 | 0.00 | 0.00 | 39 | 1008.6 |
| 20260503191308 | 51 | 188 | 3.5 | 6.1 | 0.00 | 0.00 | 0.00 | 37 | 1008.6 |
| 20260503190809 | 50 | 154 | 2.6 | 3.5 | 0.00 | 0.00 | 0.00 | 39 | 1008.8 |
| 20260503190308 | 49 | 184 | 4.3 | 7.0 | 0.00 | 0.00 | 0.00 | 38 | 1008.8 |
| 20260503185808 | 49 | 43 | 0.9 | 2.6 | 0.00 | 0.00 | 0.00 | 41 | 1008.8 |
| 20260503185309 | 49 | 228 | 3.5 | 7.0 | 0.00 | 0.00 | 0.00 | 39 | 1008.9 |
| 20260503184808 | 50 | 153 | 2.6 | 4.3 | 0.00 | 0.00 | 0.00 | 38 | 1008.9 |
| 20260503184308 | 49 | 114 | 2.6 | 6.1 | 0.00 | 0.00 | 0.00 | 40 | 1008.9 |
| 20260503183808 | 49 | 137 | 2.6 | 3.5 | 0.00 | 0.00 | 0.00 | 40 | 1008.9 |
| 20260503183308 | 49 | 135 | 0.0 | 1.7 | 0.00 | 0.00 | 0.00 | 40 | 1008.9 |
| 20260503182809 | 49 | 159 | 2.6 | 3.5 | 0.00 | 0.00 | 0.00 | 39 | 1009.0 |
| 20260503182308 | 49 | 187 | 5.2 | 10.4 | 0.00 | 0.00 | 0.00 | 38 | 1008.9 |
| 20260503181808 | 49 | 179 | 1.7 | 4.3 | 0.00 | 0.00 | 0.00 | 39 | 1009.0 |
| 20260503181309 | 49 | 37 | 1.7 | 5.2 | 0.00 | 0.00 | 0.00 | 39 | 1009.0 |
| 20260503180809 | 49 | 68 | 2.6 | 4.3 | 0.00 | 0.00 | 0.00 | 41 | 1009.1 |
| 20260503180308 | 49 | 206 | 2.6 | 3.5 | 0.00 | 0.00 | 0.00 | 39 | 1009.1 |
| 20260503175808 | 49 | 60 | 1.7 | 2.6 | 0.00 | 0.00 | 0.00 | 40 | 1009.1 |
| 20260503175310 | 49 | 64 | 1.7 | 3.5 | 0.00 | 0.00 | 0.00 | 40 | 1009.1 |
| 20260503174809 | 48 | 91 | 1.7 | 3.5 | 0.00 | 0.00 | 0.00 | 40 | 1009.1 |
| 20260503174309 | 48 | 87 | 1.7 | 2.6 | 0.00 | 0.00 | 0.00 | 41 | 1009.1 |
| 20260503173808 | 48 | 166 | 3.5 | 4.3 | 0.00 | 0.00 | 0.00 | 40 | 1009.0 |
| 20260503173308 | 48 | 207 | 2.6 | 7.8 | 0.00 | 0.00 | 0.00 | 40 | 1009.1 |
| 20260503172808 | 48 | 105 | 2.6 | 4.3 | 0.00 | 0.00 | 0.00 | 40 | 1009.0 |
| 20260503172309 | 48 | 97 | 1.7 | 3.5 | 0.00 | 0.00 | 0.00 | 40 | 1009.0 |
| 20260503171808 | 48 | 153 | 2.6 | 3.5 | 0.00 | 0.00 | 0.00 | 41 | 1009.0 |
| 20260503171311 | 48 | 98 | 3.5 | 7.0 | 0.00 | 0.00 | 0.00 | 40 | 1009.0 |
| 20260503170809 | 48 | 123 | 0.9 | 1.7 | 0.00 | 0.00 | 0.00 | 42 | 1009.1 |
| 20260503170308 | 48 | 73 | 1.7 | 2.6 | 0.00 | 0.00 | 0.00 | 42 | 1009.1 |
| 20260503150808 | 47 | 173 | 2.6 | 5.2 | 0.00 | 0.00 | 0.00 | 47 | 1009.3 |
| 20260503150308 | 47 | 40 | 3.5 | 5.2 | 0.00 | 0.00 | 0.00 | 48 | 1009.3 |
| 20260503140308 | 47 | 103 | 1.7 | 2.6 | 0.00 | 0.00 | 0.00 | 53 | 1009.6 |